{"data":{"norad_id":66225,"epoch":"2026-09-20T21:44:14.073216Z","epoch_age_seconds":61634,"freshness":"FRESH","line1":"1 66225U 25244V   26263.90571844  .00011625  00000+0  35458-3 0  9997","line2":"2 66225  53.1598  42.0413 0001090  82.4955 277.6171 15.34407755 51560","mean_motion":15.34407755,"eccentricity":0.000109,"inclination_deg":53.1598,"raan_deg":42.0413,"arg_perigee_deg":82.4955,"mean_anomaly_deg":277.6171,"bstar":0.00035458,"rev_number":5156,"period_min":93.847283768453,"perigee_km":461.93454173609,"apogee_km":463.42583988369,"semimajor_km":6840.8171908099,"source":"CELESTRAK","updated_at":"2026-09-21T09:00:35.843483Z"}}